Torna al catalogo

STARLINK-30405

AttivoComunicazioniVLEO
NORAD 57851·PAYLOAD·🇺🇸 United States

Lanciato Sep 12, 2023 da Vandenberg Space Force Base

Loading…

Prossimi Passaggi (prossime 24 ore)

TLE

AggiornatoSource: CelesTrak SupGP

Epoca: Sep 15, 2026, 02:22 UTC

1 57851C 23141M   26258.09909722  .00037248  00000+0  11979-2 0  2588
2 57851  53.1579 122.9122 0001293  84.3187  29.8795 15.31680936    16

Traccia STARLINK-30405 in tempo reale con AllMySat

Download on the App Store